Regional Weather Roundup
Issued by NWS Bismarck, ND

Home | Current Version | Previous Version | Text Only | Print | Product List | Glossary On
Versions: 1 2 3 4 5 6 7 8 9 10 11 12 13 14 15 16 17 18 19 20 21 22 23 24 25 26 27 28 29 30 31 32 33 34 35 36 37 38 39 40 41 42 43 44 45 46 47 48 49 50
000
ASUS43 KBIS 230820
RWRBIS

NWR BROADCAST TEXT
NATIONAL WEATHER SERVICE BISMARCK ND
300 AM CDT SAT AUG 23 2014

NOTE: "FAIR" INDICATES FEW OR NO CLOUDS BELOW 12,000 FEET WITH NO
SIGNIFICANT WEATHER AND/OR OBSTRUCTIONS TO VISIBILITY.


CITY           SKY/WX    TMP DP  RH WIND       PRES   REMARKS
WILLISTON      CLOUDY    60  55  83 NE15      30.10F
MINOT          CLOUDY    59  55  87 NE7       30.13S
MINOT AFB      CLOUDY    59  58  95 NE9       30.14S
BISMARCK       CLOUDY    64  61  90 NE16      30.06F
DICKINSON      CLOUDY    62  61  96 E15G23    30.03F FOG
GARRISON         N/A     62  58  86 NE10      30.10F
HETTINGER ARPT CLOUDY    65  63  93 E16       30.01F
JAMESTOWN      CLOUDY    63  59  87 NE13      30.06F
BEACH          LGT RAIN  59  59 100 E18G24    30.03F
CARRINGTON     CLOUDY    59  59 100 NE12      30.10F
CROSBY         CLOUDY    55  55 100 NE15G21   30.17S
HARVEY         CLOUDY    57  57 100 NE10G18   30.11S
HAZEN          CLOUDY    63  59  88 E10       30.08S
LINTON         CLOUDY    64  64 100 E13G22    30.03S
MANDAN         CLOUDY    63  59  88 E17G23    30.06F
OAKES            N/A     64  64 100 NE10      30.03F FOG
RUGBY          PTSUNNY   55  55 100 NE12      30.13R
STANLEY        CLOUDY    57  57 100 NE10G21   30.13F
TIOGA          CLOUDY    55  55 100 E15G23    30.15F
WATFORD CITY   CLOUDY    59  57  94 E15       30.07F
$$

CITY           SKY/WX    TMP DP  RH WIND       PRES   REMARKS
GRAND FORKS    CLOUDY    63  61  93 N9        30.06F
GRAND FORKS AF CLOUDY    61  61 100 N10       30.08F
DEVILS LAKE    CLOUDY    59  54  82 NE10      30.11S
FARGO          CLOUDY    65  63  93 N10       30.03F
CANDO          CLOUDY    57  57 100 NE9       30.14F FOG
CAVALIER       PTSUNNY   57  57 100 N8        30.12R
GRAFTON        LGT RAIN  59  59 100 N12       30.10R
GWINNER        CLOUDY    64  64 100 NE10      30.04F
LANGDON        CLOUDY    55  55 100 NE13      30.13F
ROLLA          CLOUDY    55  55 100 NE12      30.16S
WALHALLA         N/A     57  57 100 N9        30.13S
$$

CITY           SKY/WX    TMP DP  RH WIND       PRES   REMARKS
ABERDEEN       CLOUDY    65  64  97 NE12      30.00F
MOBRIDGE       RAIN      65  64  97 E18G28    29.96F FOG
BUFFALO          N/A     64  61  90 E13       29.92F
RAPID CITY     LGT RAIN  66  64  93 E7        29.94F
GLASGOW        CLOUDY    61  54  77 E17G28    30.06F
SIDNEY         CLOUDY    61  59  94 NE14      30.06F
WOLF POINT     CLOUDY    61  56  83 NE17      30.07F
GLENDIVE       CLOUDY    61  61 100 NE13      30.03S
MILES CITY     CLOUDY    63  61  93 NE8       29.95F FOG
BAKER          LGT RAIN  63  61  93 E14       30.00F
$$

CITY           SKY/WX    TMP DP  RH WIND       PRES   REMARKS
BILLINGS       FOG       60  59  96 NE6       29.95F VSB 1/2
GREAT FALLS    LGT RAIN  49  48  97 NW16G25   30.11F
REGINA         CLOUDY    55  52  88 NE10      30.21F
ESTEVAN        CLOUDY    55  52  88 NE12      30.18
$$



USA.gov is the U.S. government's official web portal to all federal, state and local government web resources and services.